[[{"header":{"parameterUnit":"m.s-1","parameterCategory":1,"la1":30.2991,"la2":30.254,"lo1":-89.0895,"lo2":-89.0444,"dy":0.0017,"dx":0.0017,"nx":28,"ny":28,"refTime":"2024-06-01T09:00:00:Z","depth":0,"parameterNumber":2,"parameterNumberName":"U-component_of_WINDS"},"data":[0,0,0,0,0,0,0,0,0,0,0,0,0,0,0,0,0,0,0,0,0,0,0,0,0,0,0,0,0,0,0,0,0,0,0,0,0,0,0,0,0,0,0,0,0,0,0,0,0,0,0,0,0,0,0,0,0,0,-2.983,-2.9833,0,-3.0104,-3.0107,-3.011,-3.0253,-3.0253,-3.0253,-3.0253,-3.054,-3.0547,-3.0555,0,0,0,0,0,0,0,0,0,0,0,0,0,-2.9437,-2.9443,-2.983,-2.9833,-2.9837,-3.0103,-3.0107,-3.0111,-3.0253,-3.0253,-3.0253,-3.0253,-3.0538,-3.0546,-3.0555,0,0,0,0,0,0,0,0,0,0,0,0,0,-2.9648,-2.9445,-2.9829,-2.9939,-2.9952,-3.0102,-3.0107,-3.0112,-3.0253,-3.0253,-3.0253,-3.0254,-3.0535,-3.0545,-3.0556,-3.062,0,0,-3.0591,-3.0595,0,0,0,0,0,0,0,0,-2.9636,-2.9663,-2.992,-2.9932,-2.9947,-3.0144,-3.0074,-3.0282,-3.0253,-3.0139,-3.0253,-3.0254,-3.0408,-3.043,-3.0481,-3.0633,-3.0645,-3.0592,-3.0598,-3.0603,-3.0606,0,0,0,0,0,0,0,-2.9621,-2.9652,-2.9938,-2.9923,-2.994,-2.9977,-3.0008,-3.0114,-3.0269,-3.0149,-3.016,-3.019,-3.0416,-3.047,-3.0489,-3.065,-3.0591,-3.0601,-3.0608,-3.0613,-3.087,-3.087,0,0,0,0,0,0,-2.9588,-2.9639,-2.993,-2.9947,-2.9789,-2.9984,-3.0018,-3.0081,-3.0268,-3.0297,-3.0189,-3.0195,-3.0451,-3.0476,-3.0499,-3.0587,-3.0603,-3.0614,-3.062,-3.0869,-3.087,-3.087,0,0,0,0,0,0,-2.9579,-2.9613,-2.9919,-2.9796,-2.9837,-2.9991,-3.006,-3.0086,-3.014,-3.0299,-3.0328,-3.0215,-3.0452,-3.0484,-3.0589,-3.0599,-3.0619,-3.0629,-3.0869,-3.087,-3.087,-3.0761,0,0,0,0,0,0,-2.9567,-2.9609,-2.9633,-2.9795,-2.9843,-3.0001,-3.006,-3.0091,-3.0158,-3.0169,-3.0331,-3.0358,-3.0454,-3.0571,-3.06,-3.0614,-3.0638,-3.0869,-3.0869,-3.087,-3.0764,-3.0757,-3.0751,0,0,0,0,0,-2.9553,-2.9592,-2.9633,-2.9667,-2.9876,-3.0001,-3.0029,-3.0137,-3.0158,-3.0185,-3.0287,-3.0353,-3.0593,-3.0581,-3.0614,-3.0632,-3.0869,-3.0869,-3.087,-3.0767,-3.0759,-3.0751,0,0,0,0,0,0,-2.9429,-2.9616,-2.9663,-2.9756,-2.9861,-3.0025,-3.0062,-3.0125,-3.0228,-3.0234,-3.0366,-3.0401,-3.0494,-3.0575,-3.0558,-3.0704,-3.0738,-3.0745,-3.0648,-3.0642,-3.0635,-3.0614,-3.0647,0,0,0,0,0,-2.9412,-2.9496,-2.9655,-2.9722,-2.9772,-2.9907,-2.9966,-3.004,-3.0155,-3.0201,-3.0311,-3.0423,-3.0524,-3.0587,-3.0689,-3.0776,-3.0815,-3.0806,-3.0799,-3.0793,-3.0798,-3.0852,-3.085,-3.0871,-3.0871,-3.0871,0,0,-2.9379,-2.9491,-2.9537,-2.97,-2.979,-2.9876,-2.9944,-3.0032,-3.0097,-3.0216,-3.0321,-3.0405,-3.0539,-3.0635,-3.0684,-3.0705,-3.08,-3.0793,-3.0787,-3.0796,-3.0852,-3.085,-3.0848,-3.0871,-3.0871,-3.0871,0,0,-2.9363,-2.9455,-2.9521,-2.961,-2.9745,-2.9835,-2.985,-3.0005,-3.0065,-3.0172,-3.0263,-3.0344,-3.0514,-3.0606,-3.0674,-3.0692,-3.0758,-3.0722,-3.0688,-3.0739,-3.0738,-3.0737,-3.0744,-3.0745,-3.0726,-3.0726,-3.0726,0,-2.9305,-2.9436,-2.9548,-2.963,-2.97,-2.9808,-2.9877,-2.9959,-3.0121,-3.0168,-3.0189,-3.0405,-3.0503,-3.0623,-3.0627,-3.0679,-3.0702,-3.0704,-3.0728,-3.0729,-3.073,-3.0738,-3.0741,-3.072,-3.0721,-3.0722,-3.0722,0,-2.9359,-2.9448,-2.9485,-2.9636,-2.9711,-2.9785,-2.9911,-2.9973,-3.0041,-3.0129,-3.0238,-3.0358,-3.0486,-3.052,-3.0588,-3.0651,-3.066,-3.0702,-3.0739,-3.0721,-3.0731,-3.0735,-3.0713,-3.0715,-3.0716,-3.0718,0,0,-2.9273,-2.9484,-2.9496,-2.9566,-2.9723,-2.9795,-2.9876,-2.9999,-3.005,-3.0159,-3.0231,-3.0373,-3.0414,-3.0491,-3.0571,-3.0615,-3.0623,-3.0654,-3.0659,-3.0644,-3.0701,-3.0668,-3.067,-3.0667,-3.0668,-3.0669,-3.069,0,-2.9279,-2.9426,-2.9529,-2.9637,-2.9722,-2.9826,-2.9897,-3.0002,-3.0087,-3.0173,-3.0268,-3.0366,-3.0412,-3.046,-3.0508,-3.0611,-3.0636,-3.0611,-3.0738,-3.0741,-3.0701,-3.0675,-3.0641,-3.0655,-3.0695,-3.0696,-3.0697,0,-2.9306,-2.9408,-2.9523,-2.9671,-2.9711,-2.9772,-2.9894,-2.9974,-3.0096,-3.0155,-3.0241,-3.0322,-3.0415,-3.0442,-3.0573,-3.0553,-3.0612,-3.067,-3.0674,-3.069,-3.0718,-3.0692,-3.0662,-3.0664,-3.0704,-3.0703,-3.0703,0,-2.9232,-2.9399,-2.949,-2.9547,-2.9721,-2.9762,-2.9837,-2.996,-3.0027,-3.0135,-3.018,-3.0297,-3.0361,-3.0452,-3.0563,-3.0573,-3.0683,-3.0719,-3.0736,-3.0733,-3.0755,-3.0752,-3.0734,-3.0791,-3.0791,-3.0791,-3.0791,0,-2.9228,-2.9295,-2.9459,-2.9514,-2.9593,-2.9712,-2.9788,-2.9872,-2.998,-3.0057,-3.0155,-3.0225,-3.0368,-3.0456,-3.0544,-3.064,-3.0668,-3.072,-3.0743,-3.0711,-3.0704,-3.0752,-3.0754,-3.0791,-3.0791,-3.0791,-3.0791,0,-2.9159,-2.9271,-2.9377,-2.9533,-2.9574,-2.9625,-2.9761,-2.982,-2.991,-3.0005,-3.0034,-3.0176,-3.0285,-3.0405,-3.0554,-3.0614,-3.0705,-3.0737,-3.0662,-3.0675,-3.0685,-3.0683,-3.0698,-3.0706,-3.0755,-3.0754,-3.0754,0,-2.9149,-2.9203,-2.9364,-2.942,-2.9492,-2.9582,-2.9651,-2.9771,-2.9839,-2.9983,-3.0025,-3.0141,-3.024,-3.041,-3.0528,-3.0644,-3.068,-3.0677,-3.0698,-3.0665,-3.0681,-3.0677,-3.0683,-3.0671,-3.067,-3.0669,-3.0668,0,-2.9121,-2.9173,-2.9267,-2.938,-2.9458,-2.9554,-2.9654,-2.9696,-2.9836,-2.9908,-3.0019,-3.0095,-3.0248,-3.0362,-3.0492,-3.0573,-3.0645,-3.066,-3.0671,-3.0639,-3.0594,-3.062,-3.0646,-3.066,-3.0661,-3.0661,-3.0662,-3.0662,-2.9082,-2.9134,-2.9255,-2.9357,-2.9444,-2.9535,-2.9598,-2.9695,-2.9789,-2.992,-2.9986,-3.0096,-3.022,-3.0401,-3.048,-3.0571,-3.0594,-3.0608,-3.0612,-3.0614,-3.0606,-3.0578,-3.0595,-3.0596,-3.0596,-3.0596,-3.0597,0,-2.9059,-2.9141,-2.9233,-2.9368,-2.9449,-2.9506,-2.962,-2.9684,-2.9779,-2.9887,-2.9981,-3.011,-3.0221,-3.0348,-3.0468,-3.0517,-3.0553,-3.0544,-3.0542,-3.056,-3.0578,-3.0557,-3.0513,-3.0513,-3.0513,-3.0513,-3.0513,-3.0513,-2.9056,-2.9148,-2.9214,-2.9351,-2.9435,-2.9542,-2.9602,-2.9687,-2.9774,-2.9911,-3.0003,-3.0084,-3.0201,-3.033,-3.0436,-3.0471,-3.0511,-3.0493,-3.0537,-3.0552,-3.0559,-3.0565,-3.0547,-3.0501,-3.0501,-3.0513,-3.0513,-3.0513]},{"header":{"parameterUnit":"m.s-1","parameterCategory":1,"la1":30.2991,"la2":30.254,"lo1":-89.0895,"lo2":-89.0444,"dy":0.0017,"dx":0.0017,"nx":28,"ny":28,"refTime":"2024-06-01T09:00:00:Z","depth":0,"parameterNumber":3,"parameterNumberName":"V-component_of_WINDS"},"data":[0,0,0,0,0,0,0,0,0,0,0,0,0,0,0,0,0,0,0,0,0,0,0,0,0,0,0,0,0,0,0,0,0,0,0,0,0,0,0,0,0,0,0,0,0,0,0,0,0,0,0,0,0,0,0,0,0,0,4.0733,4.0736,0,4.1021,4.1025,4.1028,4.1186,4.1186,4.1187,4.1187,4.148,4.1488,4.1495,0,0,0,0,0,0,0,0,0,0,0,0,0,4.032,4.0326,4.0733,4.0737,4.074,4.1021,4.1025,4.1029,4.1186,4.1186,4.1187,4.1187,4.1478,4.1487,4.1496,0,0,0,0,0,0,0,0,0,0,0,0,0,4.0542,4.0328,4.0732,4.0852,4.0866,4.102,4.1025,4.103,4.1186,4.1186,4.1187,4.1187,4.1475,4.1486,4.1497,4.1553,0,0,4.1531,4.1536,0,0,0,0,0,0,0,0,4.0529,4.0557,4.0831,4.0844,4.086,4.1068,4.0987,4.1205,4.1185,4.1064,4.1187,4.1188,4.1343,4.1365,4.1417,4.1567,4.1579,4.1532,4.1539,4.1543,4.1547,0,0,0,0,0,0,0,4.0514,4.0546,4.0847,4.0835,4.0853,4.0892,4.0924,4.1029,4.1196,4.1075,4.1087,4.1119,4.1351,4.1406,4.1425,4.1584,4.1532,4.1542,4.1548,4.1553,4.1797,4.1797,0,0,0,0,0,0,4.0479,4.0532,4.0838,4.0856,4.0693,4.0899,4.0935,4.1001,4.1196,4.1226,4.1118,4.1125,4.1387,4.1412,4.1436,4.1517,4.1543,4.1554,4.156,4.1797,4.1797,4.1796,0,0,0,0,0,0,4.047,4.0505,4.0826,4.0697,4.0741,4.0905,4.0978,4.1006,4.1062,4.1228,4.1259,4.1144,4.1388,4.1421,4.1524,4.1529,4.1559,4.1569,4.1797,4.1797,4.1797,4.1676,0,0,0,0,0,0,4.0457,4.0501,4.0523,4.0697,4.0747,4.0908,4.0978,4.1011,4.1081,4.1093,4.1261,4.1289,4.1391,4.1506,4.1535,4.1545,4.1578,4.1797,4.1797,4.1797,4.1681,4.1672,4.1665,0,0,0,0,0,4.0442,4.0477,4.0524,4.056,4.0779,4.0908,4.0937,4.1054,4.108,4.1105,4.1213,4.1284,4.1524,4.1515,4.1549,4.1562,4.1798,4.1797,4.1797,4.1684,4.1674,4.1665,0,0,0,0,0,0,4.0299,4.0502,4.0556,4.0648,4.076,4.0934,4.0969,4.1039,4.1145,4.1152,4.1293,4.1329,4.1419,4.1501,4.1488,4.1629,4.1668,4.1675,4.1571,4.1563,4.1555,4.1533,4.1587,0,0,0,0,0,4.0279,4.0366,4.0539,4.0604,4.0657,4.0803,4.0863,4.0944,4.1065,4.1113,4.1228,4.1343,4.1445,4.1508,4.1611,4.1693,4.1733,4.172,4.1711,4.1704,4.1708,4.176,4.1756,4.1795,4.1795,4.1795,0,0,4.0237,4.0359,4.0405,4.0578,4.0674,4.0762,4.0842,4.0931,4.0998,4.1127,4.1232,4.132,4.1457,4.155,4.1597,4.1622,4.1706,4.1704,4.1696,4.1705,4.1759,4.1755,4.1752,4.1795,4.1795,4.1795,0,0,4.0206,4.0306,4.0372,4.0467,4.0612,4.0709,4.0725,4.089,4.0954,4.1061,4.116,4.1242,4.1414,4.1508,4.1579,4.1586,4.1656,4.1615,4.1573,4.1622,4.1619,4.1617,4.1621,4.1621,4.1618,4.1618,4.1618,0,4.0136,4.0272,4.0397,4.0482,4.0556,4.0677,4.0746,4.0832,4.1002,4.105,4.1076,4.1295,4.1396,4.1514,4.1516,4.1569,4.1592,4.1596,4.161,4.1609,4.1609,4.1614,4.1615,4.1612,4.1613,4.1613,4.1614,0,4.0179,4.0273,4.0309,4.0471,4.0549,4.0625,4.0762,4.0826,4.09,4.0995,4.1104,4.1229,4.1361,4.1395,4.1467,4.1524,4.1535,4.1583,4.1626,4.1597,4.1605,4.1607,4.1604,4.1606,4.1607,4.1609,0,0,4.0066,4.0298,4.0309,4.0385,4.0554,4.0629,4.0711,4.084,4.0893,4.1007,4.108,4.1223,4.127,4.1349,4.1434,4.1477,4.1477,4.1521,4.1526,4.1509,4.1549,4.1512,4.1512,4.1524,4.1525,4.1526,4.1537,0,4.006,4.0213,4.0328,4.0437,4.0526,4.0644,4.0716,4.0828,4.0919,4.1007,4.1108,4.1208,4.1261,4.131,4.1358,4.1466,4.1486,4.1467,4.1594,4.1597,4.1556,4.1516,4.1477,4.1481,4.1541,4.1542,4.1542,0,4.0073,4.0183,4.0301,4.0463,4.0505,4.0567,4.0696,4.0779,4.0909,4.0973,4.1062,4.1151,4.1244,4.1278,4.1409,4.1393,4.1452,4.1513,4.1516,4.1533,4.1568,4.1532,4.1486,4.1486,4.1547,4.1547,4.1547,0,3.9979,4.0157,4.0252,4.0313,4.0504,4.0546,4.0627,4.0758,4.0829,4.0941,4.0989,4.111,4.1177,4.1269,4.1389,4.1402,4.1507,4.1551,4.1564,4.156,4.158,4.1577,4.1543,4.1617,4.1617,4.1617,4.1617,0,3.996,4.0028,4.0213,4.027,4.035,4.0483,4.0559,4.0651,4.0766,4.0845,4.0954,4.1025,4.1179,4.1269,4.1363,4.1458,4.1487,4.1541,4.1565,4.1532,4.1525,4.1573,4.1575,4.1617,4.1617,4.1617,4.1617,0,3.9869,3.9995,4.0106,4.0278,4.0323,4.0374,4.0523,4.0584,4.0682,4.078,4.0811,4.0964,4.1076,4.1204,4.1358,4.1422,4.151,4.1545,4.1466,4.148,4.1486,4.1483,4.1481,4.1489,4.1555,4.1554,4.1553,0,3.9848,3.9904,4.0082,4.0143,4.0222,4.0318,4.0391,4.0525,4.0597,4.075,4.0793,4.0914,4.1018,4.1192,4.1317,4.1436,4.1476,4.1467,4.1494,4.1459,4.1477,4.1472,4.1479,4.1458,4.1457,4.1456,4.1455,0,3.98,3.986,3.9961,4.0085,4.017,4.0273,4.0382,4.0425,4.0581,4.0656,4.0773,4.0853,4.1012,4.1131,4.1266,4.1351,4.1429,4.1446,4.1455,4.1421,4.1374,4.1401,4.1446,4.1445,4.1446,4.1447,4.1447,4.1448,3.9745,3.98,3.9934,4.0044,4.014,4.0239,4.0306,4.0413,4.0512,4.0652,4.0725,4.084,4.0972,4.1162,4.1244,4.1337,4.1363,4.1376,4.138,4.1381,4.1372,4.1358,4.1362,4.1363,4.1363,4.1364,4.1364,0,3.9702,3.9795,3.9895,4.0043,4.013,4.0197,4.0321,4.0389,4.0489,4.0605,4.0706,4.0841,4.0957,4.1092,4.1218,4.1267,4.1306,4.1295,4.1293,4.1312,4.1341,4.1321,4.1261,4.1261,4.1261,4.1261,4.1261,4.1261,3.969,3.9787,3.9864,4.001,4.0104,4.0218,4.0283,4.0376,4.0469,4.0615,4.0712,4.08,4.0925,4.1061,4.1171,4.1208,4.125,4.1228,4.1276,4.1301,4.1309,4.1318,4.13,4.1236,4.1236,4.1239,4.1239,4.1239]}]]